{"data":{"norad_id":66990,"epoch":"2026-05-24T22:29:01.502880Z","epoch_age_seconds":81248,"freshness":"FRESH","line1":"1 66990U 25290A   26144.93682295 -.00000012  00000+0  00000+0 0  9991","line2":"2 66990   1.5854 286.2769 0001866 348.9516  11.1077  1.00274661  1793","mean_motion":1.00274661,"eccentricity":0.0001866,"inclination_deg":1.5854,"raan_deg":286.2769,"arg_perigee_deg":348.9516,"mean_anomaly_deg":11.1077,"bstar":0,"rev_number":179,"period_min":1436.0557150126,"perigee_km":35777.920944717,"apogee_km":35793.656521801,"semimajor_km":42163.925733259,"source":"CELESTRAK","updated_at":"2026-05-25T13:38:14.188456Z"}}